Regional Weather Roundup
Issued by NWS

Home | Current Version | Previous Version | Graphics & Text | Print | Product List | Glossary On
Versions: 1 2 3 4 5 6 7 8 9 10 11 12 13 14 15 16 17 18 19 20 21 22 23 24 25 26 27 28 29 30 31 32 33 34 35 36 37 38 39 40 41 42 43 44 45 46 47 48 49 50
000
ASUS43 KFSD 230910
RWRSD

WEATHER ROUNDUP FOR SOUTH DAKOTA
NATIONAL WEATHER SERVICE SIOUX FALLS SD
400 AM CDT THU MAR 23 2017

NOTE: "FAIR" INDICATES FEW OR NO CLOUDS BELOW 12,000 FEET WITH NO
SIGNIFICANT WEATHER AND/OR OBSTRUCTIONS TO VISIBILITY.


SDZ001>005-009-010-012>017-231000-
NORTHWEST AND NORTH CENTRAL SOUTH DAKOTA

CITY           SKY/WX    TMP DP  RH WIND       PRES   REMARKS
BUFFALO          N/A     42  37  82 N3        29.70R
FAITH            N/A     45  37  73 S12       29.73R
MOBRIDGE       CLOUDY    43  30  60 SE13      29.74F
$$

SDZ012>016-024>037-041>051-057-063-072>074-231000-
SOUTHWEST AND SOUTH CENTRAL SOUTH DAKOTA

CITY           SKY/WX    TMP DP  RH WIND       PRES   REMARKS
RAPID CTY ARPT CLOUDY    48  38  68 S6        29.71S
PIERRE         CLOUDY    42  30  62 SE12      29.78F
CUSTER         CLOUDY    43  34  70 SW3       29.75F
ELLSWORTH AFB  CLOUDY    49  42  76 N14       29.67
PHILIP         CLOUDY    48  36  63 SE9       29.71F
PINE RIDGE     CLOUDY    46  36  68 S15G21    29.72F
SPEARFISH      FAIR      46  41  81 SE5       29.72F
WINNER         FAIR      47  31  53 S30G38    29.80F
$$

SDZ004>011-016>023-039-040-231000-
NORTHEAST SOUTH DAKOTA

CITY           SKY/WX    TMP DP  RH WIND       PRES   REMARKS
ABERDEEN       CLEAR     37  26  64 S17G26    29.88F
WATERTOWN      PTCLDY    36  26  67 S17       29.94F
BROOKINGS      CLOUDY    38  26  62 S18G26    29.98F
SISSETON         N/A     33  27  78 S13       29.95F WCI  24
$$

SDZ017-020-022-023-036>040-048>070-231000-
SOUTHEAST SOUTH DAKOTA

CITY           SKY/WX    TMP DP  RH WIND       PRES   REMARKS
SIOUX FALLS    CLOUDY    41  26  55 S14       30.01F
HURON          CLOUDY    40  29  64 SE16G24   29.91F
CHAMBERLAIN    PTCLDY    38  29  72 E5        29.85F
MITCHELL       PTCLDY    41  29  62 SE17      29.93F
YANKTON        CLOUDY    41  27  56 SE17      29.97F
$$

ABBREVIATIONS USED IN REMARKS
   TC - TEMPERATURE IN CELSIUS
  WCI - WIND CHILL INDEX
   HX - HEAT INDEX
  VSB - VISIBILITY




USA.gov is the U.S. government's official web portal to all federal, state and local government web resources and services.